| time (UTC) | temp F | wind direction | speed MPH | gust MPH | rain 1hr in | rain 24hr in | rain mn in | humidity % | barometer mb |
| 20260510162804 | 54 | 36 | 10.0 | 17.0 | 0.00 | 0.00 | 0.00 | 64 | 1016.8 |
| 20260510161804 | 54 | 25 | 6.0 | 13.0 | 0.00 | 0.00 | 0.00 | 66 | 1016.9 |
| 20260510161304 | 54 | 66 | 6.0 | 14.0 | 0.00 | 0.00 | 0.00 | 66 | 1016.9 |
| 20260510155804 | 55 | 24 | 4.0 | 16.0 | 0.00 | 0.00 | 0.00 | 64 | 1017.0 |
| 20260510153304 | 56 | 64 | 6.0 | 21.0 | 0.00 | 0.00 | 0.00 | 65 | 1017.2 |
| 20260510152307 | 54 | 32 | 7.0 | 15.0 | 0.00 | 0.00 | 0.00 | 64 | 1017.4 |
| 20260510151804 | 55 | 33 | 8.0 | 22.0 | 0.00 | 0.00 | 0.00 | 63 | 1017.4 |
| 20260510151304 | 57 | 51 | 9.0 | 17.0 | 0.00 | 0.00 | 0.00 | 63 | 1017.4 |
| 20260510145804 | 55 | 36 | 12.0 | 23.0 | 0.00 | 0.00 | 0.00 | 63 | 1017.5 |
| 20260510145306 | 56 | 52 | 9.0 | 18.0 | 0.00 | 0.00 | 0.00 | 64 | 1017.5 |
| 20260510144804 | 55 | 18 | 8.0 | 14.0 | 0.00 | 0.00 | 0.00 | 67 | 1017.5 |
| 20260510144303 | 55 | 57 | 9.0 | 21.0 | 0.00 | 0.00 | 0.00 | 65 | 1017.6 |
| 20260510143804 | 56 | 30 | 10.0 | 21.0 | 0.00 | 0.00 | 0.00 | 65 | 1017.6 |
| 20260510143305 | 55 | 31 | 10.0 | 16.0 | 0.00 | 0.00 | 0.00 | 64 | 1017.6 |
| 20260510142306 | 57 | 49 | 6.0 | 21.0 | 0.00 | 0.00 | 0.00 | 64 | 1017.7 |
| 20260510140804 | 58 | 44 | 5.0 | 17.0 | 0.00 | 0.00 | 0.00 | 60 | 1017.7 |
| 20260510135806 | 57 | 23 | 6.0 | 15.0 | 0.00 | 0.00 | 0.00 | 64 | 1017.9 |
| 20260510135306 | 56 | 40 | 10.0 | 20.0 | 0.00 | 0.00 | 0.00 | 61 | 1017.8 |
| 20260510134304 | 55 | 30 | 9.0 | 17.0 | 0.00 | 0.00 | 0.00 | 64 | 1018.0 |
| 20260510133304 | 56 | 29 | 6.0 | 15.0 | 0.00 | 0.00 | 0.00 | 65 | 1017.9 |
| 20260510131804 | 56 | 62 | 10.0 | 21.0 | 0.00 | 0.00 | 0.00 | 64 | 1018.1 |
| 20260510131303 | 57 | 65 | 12.0 | 25.0 | 0.00 | 0.00 | 0.00 | 67 | 1018.1 |
| 20260510125803 | 55 | 46 | 9.0 | 20.0 | 0.00 | 0.00 | 0.00 | 67 | 1018.2 |
| 20260510125306 | 57 | 59 | 7.0 | 20.0 | 0.00 | 0.00 | 0.00 | 67 | 1018.2 |
| 20260510124804 | 56 | 43 | 6.0 | 22.0 | 0.00 | 0.00 | 0.00 | 69 | 1018.2 |
| 20260510124303 | 54 | 35 | 9.0 | 18.0 | 0.00 | 0.00 | 0.00 | 68 | 1018.4 |
| 20260510123804 | 54 | 34 | 7.0 | 18.0 | 0.00 | 0.00 | 0.00 | 68 | 1018.5 |
| 20260510121804 | 54 | 41 | 9.0 | 20.0 | 0.00 | 0.00 | 0.00 | 70 | 1018.7 |
| 20260510120804 | 55 | 31 | 10.0 | 18.0 | 0.00 | 0.00 | 0.00 | 71 | 1018.8 |
| 20260510120303 | 54 | 26 | 10.0 | 22.0 | 0.00 | 0.00 | 0.00 | 68 | 1018.8 |
| 20260510115306 | 54 | 56 | 9.0 | 16.0 | 0.00 | 0.00 | 0.00 | 70 | 1018.8 |
| 20260510113805 | 54 | 37 | 10.0 | 16.0 | 0.00 | 0.00 | 0.00 | 73 | 1018.9 |
| 20260510112305 | 53 | 31 | 7.0 | 15.0 | 0.00 | 0.00 | 0.00 | 75 | 1019.1 |
| 20260510111806 | 53 | 14 | 7.0 | 17.0 | 0.00 | 0.00 | 0.00 | 76 | 1019.1 |
| 20260510110805 | 54 | 19 | 7.0 | 17.0 | 0.00 | 0.00 | 0.00 | 77 | 1019.2 |
| 20260510104307 | 52 | 50 | 10.0 | 18.0 | 0.00 | 0.00 | 0.00 | 79 | 1019.5 |
| 20260510101305 | 54 | 43 | 8.0 | 17.0 | 0.00 | 0.00 | 0.00 | 75 | 1019.5 |
| 20260510100805 | 53 | 14 | 9.0 | 17.0 | 0.00 | 0.00 | 0.00 | 78 | 1019.5 |
| 20260510095805 | 53 | 24 | 7.0 | 16.0 | 0.00 | 0.00 | 0.00 | 80 | 1019.4 |
| 20260510095306 | 53 | 4 | 8.0 | 15.0 | 0.00 | 0.00 | 0.00 | 80 | 1019.5 |
| 20260510094306 | 54 | 36 | 6.0 | 18.0 | 0.00 | 0.00 | 0.00 | 79 | 1019.5 |
| 20260510093805 | 53 | 31 | 6.0 | 15.0 | 0.00 | 0.00 | 0.00 | 78 | 1019.5 |
| 20260510092805 | 54 | 31 | 6.0 | 15.0 | 0.00 | 0.00 | 0.00 | 80 | 1019.4 |
| 20260510092307 | 53 | 42 | 7.0 | 17.0 | 0.00 | 0.00 | 0.00 | 80 | 1019.7 |
| 20260510091806 | 53 | 43 | 7.0 | 16.0 | 0.00 | 0.00 | 0.00 | 80 | 1019.7 |
| 20260510090805 | 53 | 24 | 8.0 | 17.0 | 0.00 | 0.00 | 0.00 | 79 | 1019.7 |
| 20260510090305 | 53 | 33 | 7.0 | 17.0 | 0.00 | 0.00 | 0.00 | 83 | 1019.8 |
| 20260510084805 | 52 | 20 | 8.0 | 15.0 | 0.00 | 0.00 | 0.00 | 81 | 1020.0 |
| 20260510083305 | 52 | 21 | 9.0 | 21.0 | 0.00 | 0.00 | 0.00 | 84 | 1020.0 |
| 20260510082805 | 51 | 46 | 7.0 | 17.0 | 0.00 | 0.00 | 0.00 | 87 | 1020.1 |
| 20260510082307 | 51 | 32 | 6.0 | 14.0 | 0.00 | 0.00 | 0.00 | 88 | 1020.1 |
| 20260510081306 | 51 | 40 | 6.0 | 15.0 | 0.00 | 0.00 | 0.00 | 89 | 1020.1 |
| 20260510080805 | 50 | 35 | 7.0 | 14.0 | 0.00 | 0.00 | 0.00 | 89 | 1020.1 |
| 20260510075306 | 50 | 29 | 6.0 | 16.0 | 0.00 | 0.00 | 0.00 | 90 | 1020.0 |
| 20260510074305 | 50 | 26 | 6.0 | 16.0 | 0.00 | 0.00 | 0.00 | 90 | 1020.0 |
| 20260510073805 | 50 | 23 | 8.0 | 22.0 | 0.00 | 0.00 | 0.00 | 90 | 1020.0 |
| 20260510073305 | 50 | 43 | 5.0 | 14.0 | 0.00 | 0.00 | 0.00 | 90 | 1019.8 |
| 20260510072805 | 51 | 20 | 6.0 | 16.0 | 0.00 | 0.00 | 0.00 | 90 | 1019.8 |
| 20260510072306 | 51 | 15 | 7.0 | 15.0 | 0.00 | 0.00 | 0.00 | 90 | 1019.8 |
| 20260510071305 | 51 | 38 | 5.0 | 10.0 | 0.00 | 0.00 | 0.00 | 90 | 1019.7 |
| 20260510070305 | 51 | 41 | 6.0 | 12.0 | 0.00 | 0.00 | 0.00 | 91 | 1019.6 |
| 20260510064805 | 51 | 39 | 7.0 | 17.0 | 0.00 | 0.00 | 0.00 | 91 | 1019.5 |
| 20260510064305 | 51 | 22 | 5.0 | 9.0 | 0.00 | 0.00 | 0.00 | 92 | 1019.5 |
| 20260510063805 | 50 | 28 | 5.0 | 10.0 | 0.00 | 0.00 | 0.00 | 92 | 1019.4 |
| 20260510062805 | 50 | 27 | 7.0 | 14.0 | 0.00 | 0.00 | 0.00 | 92 | 1019.4 |
| 20260510054805 | 50 | 17 | 5.0 | 10.0 | 0.00 | 0.00 | 0.00 | 95 | 1019.0 |
| 20260510054305 | 49 | 23 | 5.0 | 15.0 | 0.00 | 0.00 | 0.00 | 95 | 1018.9 |
| 20260510053805 | 49 | 25 | 5.0 | 12.0 | 0.00 | 0.00 | 0.00 | 96 | 1019.0 |
| 20260510052805 | 49 | 31 | 5.0 | 9.0 | 0.00 | 0.00 | 0.00 | 96 | 1019.1 |
| 20260510052306 | 49 | 14 | 4.0 | 9.0 | 0.00 | 0.00 | 0.00 | 97 | 1019.1 |
| 20260510051804 | 49 | 12 | 3.0 | 9.0 | 0.00 | 0.00 | 0.00 | 97 | 1019.1 |
| 20260510051304 | 48 | 31 | 3.0 | 6.0 | 0.00 | 0.00 | 0.00 | 97 | 1019.1 |
| 20260510050305 | 48 | 27 | 2.0 | 6.0 | 0.00 | 0.00 | 0.00 | 96 | 1019.2 |
| 20260510045805 | 48 | 29 | 3.0 | 6.0 | 0.00 | 0.00 | 0.00 | 96 | 1019.2 |
| 20260510044805 | 47 | 9 | 2.0 | 5.0 | 0.00 | 0.00 | 0.00 | 96 | 1019.3 |
| 20260510044305 | 47 | 11 | 2.0 | 3.0 | 0.00 | 0.00 | 0.00 | 96 | 1019.4 |
| 20260510043805 | 47 | 352 | 2.0 | 5.0 | 0.00 | 0.00 | 0.00 | 96 | 1019.3 |
| 20260510043305 | 47 | 24 | 2.0 | 5.0 | 0.00 | 0.00 | 0.00 | 96 | 1019.3 |
| 20260510042805 | 46 | 26 | 1.0 | 3.0 | 0.00 | 0.00 | 0.00 | 96 | 1019.3 |
| 20260510041304 | 46 | 45 | 2.0 | 5.0 | 0.00 | 0.00 | 0.00 | 96 | 1019.4 |
| 20260510040305 | 46 | 15 | 2.0 | 3.0 | 0.00 | 0.00 | 0.00 | 96 | 1019.3 |
| 20260510035805 | 46 | 2 | 2.0 | 5.0 | 0.00 | 0.00 | 0.00 | 96 | 1019.3 |
| 20260510034805 | 46 | 29 | 2.0 | 3.0 | 0.00 | 0.00 | 0.00 | 96 | 1019.2 |
| 20260510034305 | 46 | 34 | 2.0 | 6.0 | 0.00 | 0.00 | 0.00 | 96 | 1019.3 |
| 20260510033805 | 46 | 38 | 2.0 | 6.0 | 0.00 | 0.00 | 0.00 | 96 | 1019.3 |
| 20260510033305 | 47 | 47 | 3.0 | 7.0 | 0.00 | 0.00 | 0.00 | 96 | 1019.3 |
| 20260510032805 | 47 | 38 | 3.0 | 9.0 | 0.00 | 0.00 | 0.00 | 96 | 1019.3 |
| 20260510032306 | 47 | 41 | 2.0 | 6.0 | 0.00 | 0.00 | 0.00 | 96 | 1019.3 |
| 20260510031304 | 47 | 45 | 3.0 | 6.0 | 0.00 | 0.00 | 0.00 | 96 | 1019.4 |
| 20260510030806 | 47 | 40 | 2.0 | 5.0 | 0.00 | 0.00 | 0.00 | 96 | 1019.6 |
| 20260510025804 | 47 | 40 | 3.0 | 6.0 | 0.00 | 0.00 | 0.00 | 96 | 1019.5 |
| 20260510024805 | 47 | 60 | 2.0 | 6.0 | 0.00 | 0.00 | 0.00 | 96 | 1019.6 |
| 20260510023804 | 47 | 28 | 2.0 | 5.0 | 0.00 | 0.00 | 0.00 | 95 | 1019.7 |
| 20260510023305 | 47 | 32 | 2.0 | 6.0 | 0.00 | 0.00 | 0.00 | 95 | 1019.7 |
| 20260510021305 | 47 | 23 | 2.0 | 5.0 | 0.00 | 0.00 | 0.00 | 95 | 1019.7 |
| 20260510020304 | 47 | 23 | 2.0 | 6.0 | 0.00 | 0.00 | 0.00 | 95 | 1019.7 |
| 20260510015807 | 47 | 43 | 2.0 | 6.0 | 0.00 | 0.00 | 0.00 | 95 | 1019.8 |
| 20260510015306 | 47 | 17 | 2.0 | 5.0 | 0.00 | 0.00 | 0.00 | 95 | 1019.8 |
| 20260510014305 | 47 | 43 | 2.0 | 3.0 | 0.00 | 0.00 | 0.00 | 95 | 1019.9 |
| 20260510013805 | 48 | 40 | 2.0 | 6.0 | 0.00 | 0.00 | 0.00 | 95 | 1019.9 |
| 20260510012307 | 48 | 34 | 3.0 | 7.0 | 0.00 | 0.00 | 0.00 | 95 | 1019.8 |
| 20260510011304 | 48 | 9 | 3.0 | 7.0 | 0.00 | 0.00 | 0.00 | 94 | 1019.8 |
| 20260510010805 | 48 | 10 | 2.0 | 6.0 | 0.00 | 0.00 | 0.00 | 94 | 1019.8 |
| 20260510010305 | 48 | 16 | 3.0 | 10.0 | 0.00 | 0.00 | 0.00 | 94 | 1019.7 |
| 20260510005804 | 48 | 29 | 3.0 | 6.0 | 0.00 | 0.00 | 0.00 | 94 | 1019.8 |
| 20260510004805 | 48 | 29 | 3.0 | 6.0 | 0.00 | 0.00 | 0.00 | 94 | 1019.8 |
| 20260510004305 | 49 | 12 | 2.0 | 5.0 | 0.00 | 0.00 | 0.00 | 94 | 1019.9 |
| 20260510003804 | 49 | 9 | 3.0 | 10.0 | 0.00 | 0.00 | 0.00 | 94 | 1019.8 |
| 20260510003304 | 49 | 21 | 3.0 | 12.0 | 0.00 | 0.00 | 0.00 | 94 | 1019.9 |
| 20260510002805 | 49 | 19 | 3.0 | 6.0 | 0.00 | 0.00 | 0.00 | 94 | 1019.9 |
| 20260510001805 | 49 | 19 | 3.0 | 8.0 | 0.00 | 0.00 | 0.00 | 94 | 1019.8 |
| 20260510000805 | 49 | 53 | 4.0 | 9.0 | 0.00 | 0.00 | 0.00 | 93 | 1019.9 |
| 20260509235307 | 50 | 49 | 3.0 | 12.0 | 0.00 | 0.00 | 0.00 | 93 | 1020.0 |
| 20260509234805 | 50 | 27 | 5.0 | 7.0 | 0.00 | 0.00 | 0.00 | 93 | 1020.1 |
| 20260509234305 | 50 | 35 | 3.0 | 8.0 | 0.00 | 0.00 | 0.00 | 93 | 1020.2 |
| 20260509233805 | 50 | 41 | 4.0 | 8.0 | 0.00 | 0.00 | 0.00 | 93 | 1020.2 |
| 20260509233306 | 50 | 33 | 3.0 | 7.0 | 0.00 | 0.00 | 0.00 | 93 | 1020.2 |
| 20260509231804 | 51 | 34 | 3.0 | 7.0 | 0.00 | 0.00 | 0.00 | 93 | 1020.2 |
| 20260509225806 | 51 | 35 | 4.0 | 8.0 | 0.00 | 0.00 | 0.00 | 93 | 1020.1 |
| 20260509215806 | 51 | 45 | 4.0 | 10.0 | 0.00 | 0.00 | 0.00 | 90 | 1019.7 |
| 20260509214805 | 51 | 55 | 5.0 | 10.0 | 0.00 | 0.00 | 0.00 | 89 | 1019.7 |
| 20260509213811 | 51 | 43 | 3.0 | 8.0 | 0.00 | 0.00 | 0.00 | 87 | 1019.6 |
| 20260509212806 | 51 | 39 | 3.0 | 9.0 | 0.00 | 0.00 | 0.00 | 85 | 1019.7 |
| 20260509204804 | 52 | 41 | 3.0 | 12.0 | 0.00 | 0.00 | 0.00 | 75 | 1019.5 |
| 20260509203807 | 53 | 23 | 2.0 | 7.0 | 0.00 | 0.00 | 0.00 | 74 | 1019.4 |
| 20260509202816 | 53 | 42 | 4.0 | 12.0 | 0.00 | 0.00 | 0.00 | 71 | 1019.4 |
| 20260509202315 | 54 | 44 | 3.0 | 7.0 | 0.00 | 0.00 | 0.00 | 70 | 1019.5 |
| 20260509195804 | 55 | 47 | 1.0 | 5.0 | 0.00 | 0.00 | 0.00 | 65 | 1019.3 |
| 20260509194804 | 56 | 26 | 1.0 | 5.0 | 0.00 | 0.00 | 0.00 | 63 | 1019.2 |
| 20260509190804 | 58 | 51 | 3.0 | 8.0 | 0.00 | 0.00 | 0.00 | 60 | 1018.7 |
| 20260509190304 | 59 | 53 | 5.0 | 12.0 | 0.00 | 0.00 | 0.00 | 59 | 1018.7 |
| 20260509185306 | 59 | 47 | 5.0 | 12.0 | 0.00 | 0.00 | 0.00 | 57 | 1018.6 |
| 20260509184305 | 60 | 45 | 5.0 | 15.0 | 0.00 | 0.00 | 0.00 | 55 | 1018.6 |
| 20260509183806 | 61 | 47 | 3.0 | 12.0 | 0.00 | 0.00 | 0.00 | 54 | 1018.5 |
| 20260509183305 | 61 | 56 | 4.0 | 9.0 | 0.00 | 0.00 | 0.00 | 53 | 1018.4 |
| 20260509182804 | 61 | 42 | 6.0 | 12.0 | 0.00 | 0.00 | 0.00 | 52 | 1018.6 |
| 20260509182306 | 62 | 49 | 3.0 | 9.0 | 0.00 | 0.00 | 0.00 | 52 | 1018.6 |
| 20260509181304 | 62 | 63 | 3.0 | 12.0 | 0.00 | 0.00 | 0.00 | 50 | 1018.5 |
| 20260509180804 | 62 | 51 | 4.0 | 12.0 | 0.00 | 0.00 | 0.00 | 50 | 1018.6 |
| 20260509180304 | 63 | 74 | 6.0 | 13.0 | 0.00 | 0.00 | 0.00 | 48 | 1018.6 |
| 20260509174804 | 63 | 57 | 4.0 | 14.0 | 0.00 | 0.00 | 0.00 | 49 | 1018.6 |
| 20260509174304 | 63 | 40 | 6.0 | 12.0 | 0.00 | 0.00 | 0.00 | 49 | 1018.6 |
| 20260509173304 | 64 | 66 | 5.0 | 14.0 | 0.00 | 0.00 | 0.00 | 48 | 1018.6 |
| 20260509172804 | 64 | 68 | 5.0 | 14.0 | 0.00 | 0.00 | 0.00 | 48 | 1018.6 |
| 20260509171804 | 64 | 53 | 7.0 | 14.0 | 0.00 | 0.00 | 0.00 | 47 | 1018.6 |
| 20260509171305 | 64 | 76 | 6.0 | 12.0 | 0.00 | 0.00 | 0.00 | 47 | 1018.6 |
| 20260509170804 | 64 | 71 | 5.0 | 12.0 | 0.00 | 0.00 | 0.00 | 46 | 1018.6 |
| 20260509170305 | 65 | 62 | 6.0 | 14.0 | 0.00 | 0.00 | 0.00 | 44 | 1018.6 |
| 20260509165306 | 65 | 71 | 3.0 | 13.0 | 0.00 | 0.00 | 0.00 | 45 | 1018.6 |
| 20260509164304 | 66 | 63 | 6.0 | 12.0 | 0.00 | 0.00 | 0.00 | 47 | 1018.5 |